Regional Weather Roundup
Issued by NWS Jackson, KY

Home | Current Version | Previous Version | Graphics & Text | Print | Product List | Glossary On
Versions: 1 2 3 4 5 6 7 8 9 10 11 12 13 14 15 16 17 18 19 20 21 22 23 24 25 26 27 28 29 30 31 32 33 34 35 36 37 38 39 40 41 42 43 44 45 46 47 48 49 50
000
ASUS43 KJKL 092310
RWRJKL

EAST KENTUCKY HOURLY WEATHER ROUNDUP
NATIONAL WEATHER SERVICE JACKSON KY
600 PM EST TUE FEB 09 2016

NOTE: "FAIR" INDICATES FEW OR NO CLOUDS BELOW 12,000 FEET WITH
NO SIGNIFICANT WEATHER AND/OR OBSTRUCTIONS TO VISIBILITY.

* THESE REPORTS ARE NOT UNDER NWS QUALITY CONTROL AND MAY NOT
  REPORT WEATHER SUCH AS PRECIPITATION AND FOG.

KYZ079-080-083-085-087-088-110-112-115-119-120-100000
...EASTERN KENTUCKY...

CITY           SKY/WX    TMP DP  RH WIND       PRES   REMARKS
JACKSON        CLOUDY    22  13  68 W9        29.84R WCI  12
LONDON         LGT SNOW  22  15  75 W7        29.89R WCI  13
SOMERSET*      CLOUDY    23  18  80 W9        29.93R WCI  13
MONTICELLO*    LGT SNOW  23  18  81 W12       29.94R WCI  12
WILLIAMSBURG*  CLOUDY    23  19  86 CALM      29.90R
MIDDLESBORO*   LGT SNOW  24  18  78 W5        29.90R WCI  18
HARLAN APT*    CLOUDY    23  14  68 SW6       29.85R WCI  16
HAZARD APT*    FLURRIES N/A N/A N/A W12G17    29.86R
BLACK MTN*       N/A     10  10 100 W2          N/A
BIG SANDY*     FLURRIES  24  16  74 W5        29.83R WCI  18
MOREHEAD APT*  LGT SNOW  23  16  74 W7G15     29.87R WCI  15
$$

KYZ035-036-041-042-044-050-067-078-099-100000
...CENTRAL KENTUCKY...

CITY           SKY/WX    TMP DP  RH WIND       PRES   REMARKS
MT STERLING*   LGT SNOW  23  19  86 W9G16     29.88R WCI  13
DANVILLE*      FLURRIES  23  18  80 W7        29.91R WCI  15
RICHMOND*      CLOUDY    23  16  74 W14       29.89R WCI  11
LEXINGTON      FLURRIES  22  14  71 W17       29.88R WCI   8
$$

KYZ091>093-OHZ055-061-077-WVZ005-015-034-035-042-100000
...SOUTHERN OHIO/WEST VIRGINIA...

CITY           SKY/WX    TMP DP  RH WIND       PRES   REMARKS
COVINGTON      LGT SNOW  23  18  81 W13       29.85R WCI  11
COLUMBUS       LGT SNOW  24  18  77 W14G20    29.75R WCI  12
DAYTON         LGT SNOW  24  19  81 W16G26    29.80R WCI  11
WILMINGTON     CLOUDY    22  17  81 W18       29.79R WCI   7
HUNTINGTON     LGT SNOW  24  18  77 W7        29.82R WCI  16
CHARLESTON     LGT SNOW  24  19  81 SW10      29.80R VSB 1   WCI  14
PINEVILLE*     LGT SNOW  22  14  71 MISG      29.82R
BECKLEY        LGT SNOW  18  10  71 W13       29.70R WCI   5
$$

VAZ002-007-008-TNZ017-027-036-066-071-100000
...SOUTHWEST VIRGINIA/EAST TENNESSEE...

CITY           SKY/WX    TMP DP  RH WIND       PRES   REMARKS
BRISTOL        CLOUDY    24  14  65 W10       29.83R WCI  14
KNOXVILLE      LGT SNOW  26  20  77 VRB5      29.91R VSB 3/4 WCI  20
OAK RIDGE      CLOUDY    29  14  53 VRB6      29.92R WCI  23
CROSSVILLE     LGT SNOW  21  15  78 W14G24    29.88R WCI   8
NASHVILLE      LGT SNOW  25  16  68 NW10      30.02R WCI  15
$$

...KEY TO REMARKS...
VSB - VISIBILITY IN MILES
WCI - WIND CHILL INDEX
HX  - HEAT INDEX

$$



USA.gov is the U.S. government's official web portal to all federal, state and local government web resources and services.